Theta_e
284 285 285 284 284 284 284 284 284 283 283 282 282 281 281 280 280 279 279 279 279 278 278 278 278 278 277 277 277 277 277 277 274 276 278 278 278 279 280 280 281 281 281
285 284 284 284 284 283 283 283 282 282 282 282 281 281 281 280 280 279 279 279 278 278 278 278 278 280 277 277 277 276 276 276 275 275 276 277 278 279 279 279 281 282 281
284 284 284 283 283 283 283 282 282 281 281 282 281 281 280 280 279 279 279 278 278 278 278 278 278 278 277 277 277 277 277 279 276 275 275 276 277 278 278 278 278 278 279
284 284 283 283 283 283 283 283 282 281 281 280 280 279 280 279 280 280 279 278 278 278 279 278 278 278 278 277 278 276 277 276 276 275 275 275 275 277 276 275 274 275 274
283 283 282 283 283 283 282 282 281 281 280 279 278 277 277 278 279 278 279 278 278 278 279 280 279 278 281 280 277 275 275 274 274 274 274 274 273 272 272 273 271 271 272
282 282 282 282 282 282 281 281 281 280 280 279 278 277 276 280 284 284 281 279 280 279 277 277 277 276 278 278 278 278 278 275 274 273 272 271 272 272 272 271 270 268 266
281 281 281 281 281 281 281 281 280 279 279 278 277 277 276 278 285 284 283 279 277 276 276 275 275 275 275 275 275 276 275 276 277 275 272 272 271 271 272 270 268 266 265
280 280 281 281 280 280 280 280 279 278 276 275 275 275 276 279 284 283 280 274 273 271 271 271 271 271 272 275 273 271 271 273 275 274 273 272 273 273 272 269 266 264 264
279 280 280 280 279 279 277 276 275 275 276 274 274 275 278 279 281 280 275 272 271 270 270 270 270 271 274 276 271 267 268 269 274 275 274 274 273 272 270 265 261 259 258
276 277 278 279 277 275 274 273 274 274 272 272 271 272 273 276 279 278 274 271 269 269 268 269 275 272 275 275 273 270 265 266 267 264 263 263 264 263 267 264 262 258 258
273 274 274 274 273 272 271 271 270 270 269 268 268 269 269 270 276 276 275 270 269 267 268 269 270 273 274 276 276 270 270 268 263 256 255 258 259 258 260 260 259 259 257
271 271 271 272 272 271 269 269 269 268 267 266 266 266 267 267 274 275 276 275 273 269 269 269 268 273 274 274 271 272 272 265 257 256 254 256 256 257 257 258 257 258 258
269 269 269 270 270 270 268 267 267 267 266 265 265 264 265 267 268 272 273 272 272 269 269 270 272 271 270 267 268 268 261 257 253 252 255 255 252 256 252 256 255 255 256
267 267 268 268 268 269 269 268 267 266 266 265 265 264 265 266 267 269 269 269 271 269 268 265 266 266 265 264 261 260 259 257 254 254 255 255 251 254 254 255 255 255 254
266 267 267 267 267 267 268 268 267 268 268 266 265 265 264 265 268 269 269 269 269 265 260 259 258 258 257 257 257 256 256 255 254 254 254 253 253 254 254 254 254 253 252
265 266 267 267 268 269 269 270 274 273 272 271 270 268 268 269 268 269 270 269 268 265 255 254 254 255 254 254 253 253 254 253 254 253 253 253 252 252 252 253 253 252 252
263 264 264 264 265 265 266 265 264 267 270 270 270 269 267 267 267 268 267 263 263 257 251 251 252 252 252 252 252 252 251 253 253 252 252 252 252 252 251 252 252 252 251
262 262 261 261 261 261 261 260 260 259 257 257 264 263 265 266 266 264 262 257 251 252 250 248 245 245 247 249 250 250 250 250 250 251 250 250 251 251 250 250 251 250 251
260 259 259 259 259 259 258 258 257 256 255 255 255 257 258 262 261 260 258 250 247 246 246 243 243 243 244 243 246 248 248 249 249 249 249 250 250 250 249 250 251 251 251
258 259 258 258 257 257 257 256 255 254 253 253 252 252 253 251 247 248 249 247 243 244 243 242 243 241 240 242 244 244 247 247 247 248 248 248 249 250 249 250 250 250 251
257 256 256 256 255 255 254 254 253 253 252 251 251 252 256 247 246 245 244 243 241 241 241 240 241 240 240 241 241 242 244 246 247 247 247 248 248 248 250 251 251 251 252
256 255 255 254 254 253 253 253 252 252 251 250 248 250 256 246 244 242 241 240 239 238 239 239 241 241 242 242 242 243 245 246 246 246 246 247 248 248 249 249 250 250 251
255 254 253 253 253 252 252 251 251 250 249 247 247 246 245 242 240 239 239 239 239 241 242 238 241 243 243 242 241 242 245 246 246 247 246 247 247 247 248 248 249 250 250
254 253 252 252 251 251 250 249 249 249 247 245 243 242 241 239 238 239 239 240 240 241 241 241 242 243 244 245 245 245 246 246 247 247 247 247 247 247 248 248 249 250 251
252 252 251 250 249 248 248 246 246 243 243 242 241 239 237 238 238 239 240 240 240 241 242 242 242 243 243 243 244 245 246 247 247 248 248 247 247 247 248 249 250 253 255
251 251 250 249 248 247 245 245 243 241 240 240 239 237 237 238 239 239 240 240 241 242 242 243 243 243 243 244 245 246 248 252 252 252 252 251 251 253 254 254 254 254 254
Wind_Speed
15 13 13 10 11 11 11 11 11 11 11 11 10 10 9 8 7 7 6 6 7 6 5 6 5 4 3 2 2 1 2 2 3 3 2 2 3 5 5 5 6 6 5
15 14 13 11 11 11 10 10 9 11 10 11 10 9 9 8 7 7 7 6 7 6 6 6 5 3 3 2 1 0 1 1 2 4 3 2 4 7 7 8 7 7 6
15 14 13 12 12 12 11 10 10 10 9 10 10 10 9 8 7 7 7 7 6 6 6 6 5 5 3 2 2 2 1 2 1 2 4 2 3 3 9 7 6 7 6
15 15 15 15 14 12 12 11 11 11 11 9 8 8 8 7 7 7 7 7 6 6 6 6 5 5 4 4 3 3 3 3 3 3 5 5 4 6 5 7 7 5 7
15 15 15 12 12 11 11 11 10 10 9 8 8 7 7 7 6 6 7 6 6 6 5 6 5 5 7 4 2 1 1 1 2 4 5 5 6 7 7 5 8 9 9
14 14 13 13 12 12 12 12 11 10 10 10 9 9 8 5 15 15 10 7 7 8 7 5 6 6 6 6 6 6 5 3 4 4 5 6 6 6 8 10 9 9 13
12 11 12 13 13 13 12 13 12 11 11 10 9 9 7 4 15 14 14 6 7 7 6 5 5 4 4 3 5 7 7 10 9 7 5 5 8 9 10 10 11 11 13
11 11 12 12 12 12 13 12 11 10 10 9 8 8 8 6 14 14 16 9 8 6 6 6 5 3 3 2 1 2 3 3 4 5 5 8 9 10 11 11 13 13 11
11 12 11 12 12 13 12 12 11 12 11 10 8 9 11 10 15 15 11 8 7 6 5 4 3 1 3 7 1 3 1 2 8 14 13 15 17 20 19 10 8 10 13
7 9 10 12 14 14 14 13 10 12 12 10 11 9 9 11 15 15 10 6 6 4 4 4 6 2 9 12 5 3 2 6 3 6 6 8 9 9 18 9 8 10 10
11 13 13 13 15 15 15 13 13 13 13 12 13 10 10 7 12 16 15 6 5 3 3 2 2 10 10 13 14 5 9 9 9 2 3 4 5 4 5 4 5 8 11
12 15 15 14 12 12 16 13 13 14 14 12 12 10 7 6 12 13 13 13 11 5 3 1 3 12 15 16 12 19 20 14 5 6 5 6 6 7 6 6 6 9 9
13 14 14 14 13 13 15 14 12 12 11 9 9 8 6 6 6 12 12 11 9 4 2 6 12 13 14 11 16 17 10 5 4 4 6 7 4 6 6 8 7 9 11
15 14 13 14 14 12 10 9 10 9 9 9 9 8 7 4 3 3 4 3 6 5 10 8 10 11 12 11 7 8 6 5 4 6 7 6 4 6 8 7 9 10 11
14 13 13 11 13 13 11 9 9 8 9 9 7 7 6 4 5 7 6 4 3 11 6 6 6 6 6 6 5 5 5 6 6 6 7 8 8 8 9 8 8 10 11
14 11 10 11 11 12 13 14 25 23 23 21 18 11 7 10 9 9 12 14 14 16 6 5 5 5 5 6 6 6 6 6 6 8 8 7 8 9 10 10 9 9 12
13 12 10 11 10 11 11 12 13 16 22 20 18 16 13 10 9 10 15 15 16 12 4 3 4 5 5 5 5 6 7 7 8 7 8 8 9 9 11 10 11 11 12
13 15 10 9 9 9 8 8 7 7 7 6 13 12 12 11 15 13 15 11 5 7 3 2 2 2 3 5 5 6 7 7 7 7 8 8 8 9 10 10 11 12 13
11 9 9 9 9 9 8 8 7 7 7 5 4 8 10 13 13 13 13 4 2 2 2 2 1 2 2 2 4 5 6 7 7 8 8 8 8 9 11 10 12 16 17
12 16 11 9 8 7 7 7 6 6 6 5 4 2 2 5 3 2 3 3 3 1 2 2 3 3 3 3 4 4 6 7 7 7 8 8 8 8 11 12 11 13 13
9 9 12 8 7 6 6 6 6 6 5 4 3 3 12 3 1 2 2 2 1 2 3 2 3 3 3 4 4 4 5 7 7 8 8 8 9 10 10 11 13 13 14
8 8 7 7 6 7 6 5 5 5 5 4 2 3 10 3 2 2 2 3 3 3 3 2 3 3 4 4 5 5 7 8 8 7 8 9 10 10 11 12 13 13 14
8 9 8 7 6 8 6 5 5 4 3 3 2 3 2 1 2 2 3 4 3 4 4 3 4 5 4 4 4 5 8 9 8 7 9 10 11 11 10 12 13 14 14
8 8 7 6 5 5 4 4 3 4 3 3 2 1 2 2 3 4 4 4 4 4 4 4 5 7 7 6 5 6 7 8 7 9 11 11 12 13 11 13 13 16 16
7 7 6 5 5 4 4 3 3 2 2 0 1 1 2 3 3 4 4 4 4 5 6 5 4 7 9 10 11 14 14 17 13 13 10 13 15 17 15 13 15 16 19
6 6 5 4 4 3 3 2 1 0 1 2 2 2 3 3 4 4 4 5 5 5 7 5 7 10 12 12 13 15 16 17 16 17 13 11 12 13 13 15 21 15 19
Wind_Direction
180 182 181 176 169 164 167 170 169 162 160 158 155 149 147 142 141 136 140 138 127 125 120 124 121 124 114 104 99 106 141 150 193 286 267 306 296 312 308 291 289 288 284
182 180 181 171 168 166 168 167 159 160 158 153 149 147 148 146 147 146 151 144 141 143 146 135 144 141 131 105 95 217 234 237 194 263 265 288 297 302 299 303 301 305 303
175 175 178 177 174 172 166 161 156 151 153 151 150 155 154 150 147 151 144 146 147 151 152 147 142 137 129 97 76 60 21 337 305 258 287 270 279 311 306 304 307 307 312
175 176 180 183 181 172 165 160 155 154 151 153 153 146 146 146 147 144 141 138 135 131 125 120 116 108 106 90 64 23 13 343 327 308 304 302 290 300 297 307 315 330 315
177 178 181 176 170 162 160 155 149 151 151 144 136 129 134 139 144 134 136 135 132 123 111 106 97 92 99 95 103 40 5 301 288 296 298 312 312 315 321 326 304 303 300
180 182 171 163 164 163 157 152 146 139 139 134 134 137 132 134 152 146 135 126 124 118 109 92 95 78 63 55 31 2 351 343 325 309 305 304 302 337 315 310 305 309 308
174 168 163 163 163 163 154 147 144 142 135 131 129 127 120 113 148 143 135 109 99 93 96 101 89 74 64 47 10 3 348 329 322 322 327 334 313 318 310 318 319 310 299
163 162 161 159 157 149 144 140 130 129 127 127 118 118 119 124 137 117 106 97 94 94 94 91 93 71 356 316 209 289 279 299 324 327 307 300 299 320 328 326 315 304 297
159 157 156 150 141 136 126 121 118 116 115 111 111 112 111 110 116 112 105 101 102 104 103 104 109 126 336 331 354 283 333 281 299 319 340 339 331 331 324 325 319 315 306
102 112 115 124 121 117 117 113 108 107 105 102 91 83 90 106 110 106 96 94 91 85 60 43 38 351 338 327 308 90 293 280 3 15 345 338 336 326 333 322 318 307 307
99 94 93 102 109 113 111 111 112 109 105 97 91 77 72 68 102 102 97 92 96 94 86 61 354 332 320 321 336 10 322 14 356 346 303 325 331 314 304 290 284 291 294
94 97 100 103 106 108 108 106 107 111 108 104 99 85 64 50 86 90 82 81 79 84 69 318 264 315 339 346 1 333 335 3 2 357 351 326 309 308 298 291 277 278 273
91 91 95 97 101 107 113 115 113 114 114 113 106 101 88 65 51 68 64 55 35 59 326 329 357 3 4 8 354 344 20 7 349 344 320 308 266 296 292 302 291 278 277
94 94 96 97 99 97 98 103 109 114 115 115 114 111 108 96 80 72 64 47 17 356 50 37 23 21 14 12 17 7 354 344 322 316 316 309 301 314 308 304 303 308 303
97 98 97 95 98 98 89 94 93 85 102 109 100 99 102 91 58 45 32 19 17 67 55 43 29 21 14 6 358 344 335 332 334 326 321 317 315 314 311 312 307 307 299
105 104 108 109 108 108 110 106 99 101 104 106 106 96 83 75 51 34 37 39 29 33 44 38 22 14 3 354 346 340 333 327 329 323 315 313 312 311 309 312 304 299 300
103 103 99 96 98 105 105 106 108 86 86 87 84 78 70 60 46 45 55 39 38 52 63 34 24 14 0 348 335 330 321 325 322 314 312 311 310 306 309 307 308 305 301
92 90 90 90 89 88 88 92 96 102 98 63 65 64 54 55 52 34 43 41 35 36 45 31 0 345 334 334 333 326 321 319 316 312 309 307 305 304 307 304 303 301 299
90 86 86 85 84 87 89 88 89 90 90 88 66 58 28 48 45 47 53 70 70 23 15 1 289 291 299 300 309 313 305 304 304 303 302 304 305 304 299 296 296 297 297
87 89 87 88 89 88 89 93 93 90 89 83 69 50 49 45 40 23 44 46 45 352 315 320 314 307 293 290 296 292 304 302 298 298 299 298 297 294 293 296 295 296 296
92 89 93 85 84 85 86 85 86 89 90 82 50 320 120 98 53 33 8 355 303 300 286 264 276 282 273 279 281 281 278 289 291 292 295 296 298 296 292 290 292 293 292
90 90 89 89 90 86 86 90 91 90 85 85 54 358 43 54 37 338 309 296 280 253 248 247 277 264 263 262 266 275 287 287 289 289 290 292 294 292 292 292 294 294 295
94 94 90 89 92 98 91 87 89 91 94 80 50 31 13 346 304 288 285 286 294 301 292 284 275 284 265 248 238 240 272 280 281 284 289 292 291 288 288 290 292 294 295
93 95 97 94 93 91 92 89 80 76 79 71 38 318 273 274 283 288 290 291 289 282 273 275 266 268 284 287 277 262 260 268 272 274 271 279 284 286 283 286 288 287 287
91 94 93 96 95 94 92 85 90 82 69 168 270 273 296 309 310 294 283 286 289 290 284 270 262 276 282 282 278 278 276 281 272 269 269 265 267 273 275 279 281 283 290
91 93 97 101 102 108 112 109 100 131 248 273 282 290 276 280 272 279 286 288 283 275 286 283 286 279 281 282 279 279 281 282 281 269 256 256 265 275 279 286 290 291 291